Location: Campillo
(40.8621°N, 4.2488°W)
Time: 11:09:49
(UTC+00:00)

USA 290 - Pass Details

Date: 01 October 2021
Orbit: 397 x 413 km, 73.6° (Epoch: 06 October)

Event Time Altitude Azimuth Distance (km) Brightness Sun altitude
Exits shadow 03:38:43 10° 25° (NNE) 1,468 5.5 -29.4°
Drops below altitude 10° 03:38:46 10° 25° (NNE) 1,493 5.6 -29.4°
Sets 03:40:50 0° 23° (NNE) 2,359 6.7 -29.1°
